LA4GY-1 Weather Reports


Display with metric or nautical units.
time (UTC)temp
F
wind
direction
speed
MPH
gust
MPH
rain 1hr
in
rain 24hr
in
rain mn
in
humidity
%
barometer
mb
20260904164142 56 317 0.0 0.0 0.00 0.04 0.02 89 998.3
20260904163142 56 34 0.0 0.0 0.00 0.04 0.02 88 998.3
20260904162142 56 34 0.0 0.0 0.00 0.04 0.02 88 998.3
20260904161141 57 34 0.0 0.0 0.00 0.04 0.02 88 998.3
20260904160141 57 34 0.0 0.0 0.00 0.04 0.02 88 998.2
20260904155111 58 34 0.0 0.0 0.02 0.04 0.02 88 998.1
20260904154111 58 14 0.0 0.0 0.02 0.04 0.02 90 998.2
20260904153041 58 348 0.0 0.0 0.02 0.04 0.02 89 998.2
20260904152041 58 329 0.0 0.0 0.02 0.04 0.02 87 998.4
20260904151041 59 329 0.0 0.0 0.02 0.04 0.02 86 998.4
20260904150011 60 328 0.0 0.0 0.02 0.04 0.02 83 998.4
20260904145011 61 326 0.0 0.0 0.00 0.02 0.00 79 998.4
20260904144011 63 72 0.0 0.0 0.00 0.02 0.00 77 998.4
20260904142941 64 8 0.0 0.0 0.00 0.02 0.00 70 998.4
20260904141941 64 71 0.0 0.0 0.00 0.02 0.00 69 998.3
20260904140941 63 101 0.0 0.0 0.00 0.02 0.00 70 998.4
20260904135911 63 116 0.0 0.0 0.00 0.02 0.00 74 998.3
20260904134911 63 116 0.0 0.0 0.00 0.02 0.00 73 998.4
20260904133911 63 115 0.0 0.0 0.00 0.02 0.00 73 998.5
20260904132911 63 116 0.0 0.0 0.00 0.02 0.00 72 998.5
20260904131841 63 115 0.0 0.0 0.00 0.02 0.00 70 998.7
20260904130811 63 116 0.0 0.0 0.00 0.02 0.00 73 998.8
20260904125811 63 167 0.0 0.0 0.00 0.02 0.00 74 998.8
20260904124811 64 168 0.0 0.0 0.00 0.02 0.00 73 998.8
20260904123741 64 75 0.0 0.0 0.00 0.02 0.00 75 998.8
20260904122741 64 120 0.0 0.0 0.00 0.02 0.00 78 998.9
20260904121741 63 168 0.0 0.0 0.00 0.02 0.00 78 999.0
20260904120711 62 169 0.0 0.0 0.00 0.02 0.00 79 999.1
20260904115711 62 98 0.0 0.0 0.00 0.02 0.00 82 999.1
20260904114711 62 98 0.0 0.0 0.00 0.02 0.00 79 999.2
20260904113711 62 160 0.0 0.0 0.00 0.02 0.00 81 999.2
20260904112711 62 160 0.0 0.0 0.00 0.02 0.00 82 999.3
20260904111641 60 307 0.0 0.0 0.00 0.02 0.00 86 999.3
20260904110641 59 318 0.0 0.0 0.00 0.02 0.00 86 999.4
20260904105641 59 103 0.0 0.0 0.00 0.02 0.00 87 999.4
20260904104641 59 157 0.0 0.0 0.00 0.02 0.00 86 999.5
20260904103641 59 157 0.0 0.0 0.00 0.02 0.00 86 999.6
20260904102611 58 157 0.0 0.0 0.00 0.02 0.00 87 999.7
20260904101611 58 157 0.0 0.0 0.00 0.02 0.00 87 999.6
20260904100541 58 157 0.0 0.0 0.00 0.02 0.00 86 999.7
20260904095541 58 157 0.0 0.0 0.00 0.02 0.00 85 999.9
20260904094541 59 157 0.0 0.0 0.00 0.02 0.00 85 999.8
20260904093541 58 157 0.0 0.0 0.00 0.02 0.00 85 999.9
20260904092541 58 158 0.0 0.0 0.00 0.02 0.00 89 999.9
20260904091541 57 157 0.0 0.0 0.00 0.02 0.00 89 999.9
20260904090540 56 156 0.0 0.0 0.00 0.02 0.00 89 1000.0
20260904085510 56 155 0.0 0.0 0.00 0.02 0.00 91 1000.1
20260904084440 55 159 0.0 0.0 0.00 0.02 0.00 91 1000.2
20260904083440 55 166 0.0 0.0 0.00 0.02 0.00 91 1000.1
20260904082410 55 174 0.0 0.0 0.00 0.02 0.00 91 1000.0
20260904081340 55 133 0.0 0.0 0.00 0.02 0.00 91 1000.1
20260904080340 55 129 0.0 0.0 0.00 0.02 0.00 91 1000.0
20260904075310 55 145 0.0 0.0 0.00 0.02 0.00 91 1000.2
20260904074240 55 111 0.0 0.0 0.00 0.02 0.00 92 1000.2
20260904073240 55 121 0.0 0.0 0.00 0.02 0.00 92 1000.3
20260904072210 55 159 0.0 0.0 0.00 0.02 0.00 92 1000.3
20260904071210 55 159 0.0 0.0 0.00 0.02 0.00 92 1000.3
20260904070210 55 158 0.0 0.0 0.00 0.02 0.00 93 1000.3
20260904065140 54 156 0.0 0.0 0.00 0.02 0.00 93 1000.4
20260904064110 54 156 0.0 0.0 0.00 0.02 0.00 92 1000.5
20260904063040 54 122 0.0 0.0 0.00 0.02 0.00 93 1000.4
20260904062040 54 121 0.0 0.0 0.00 0.02 0.00 93 1000.4
20260904061010 54 100 0.0 0.0 0.00 0.02 0.00 93 1000.5
20260904060010 54 339 0.0 0.0 0.00 0.03 0.00 93 1000.5
20260904055010 54 340 0.0 0.0 0.00 0.03 0.00 93 1000.6
20260904053940 53 325 0.0 0.0 0.00 0.04 0.00 93 1000.7
20260904052940 53 319 0.0 0.0 0.00 0.04 0.00 93 1000.7
20260904051940 53 319 0.0 0.0 0.00 0.05 0.00 93 1000.7
20260904050940 53 319 0.0 0.0 0.00 0.06 0.00 93 1000.7
20260904045910 53 317 0.0 0.0 0.00 0.06 0.00 93 1000.7
20260904044910 53 315 0.0 0.0 0.00 0.08 0.00 93 1000.8
20260904043910 53 298 0.0 0.0 0.00 0.08 0.00 93 1000.8
20260904042840 53 327 0.0 0.0 0.00 0.09 0.00 93 1000.8
20260904041840 53 334 0.0 0.0 0.00 0.10 0.00 93 1000.8
20260904040840 53 331 0.0 0.0 0.00 0.11 0.00 93 1000.9
20260904035810 53 342 0.0 0.0 0.00 0.13 0.00 93 1000.9
20260904034810 53 341 0.0 0.0 0.00 0.13 0.00 93 1000.9
20260904033810 53 343 0.0 0.0 0.00 0.14 0.00 93 1001.0
20260904032740 53 314 0.0 0.0 0.00 0.15 0.00 93 1001.1
20260904031710 53 314 0.0 0.0 0.00 0.16 0.00 93 1000.9
20260904030710 53 314 0.0 0.0 0.00 0.17 0.00 93 1000.9
20260904025710 53 314 0.0 0.0 0.00 0.19 0.00 93 1001.2
20260904024710 53 333 0.0 0.0 0.00 0.19 0.00 93 1001.2
20260904023640 53 307 0.0 0.0 0.00 0.19 0.00 93 1001.2
20260904022640 53 310 0.0 0.0 0.00 0.20 0.00 93 1001.2
20260904021610 53 348 0.0 0.0 0.00 0.20 0.00 93 1001.2
20260904020610 53 346 0.0 0.0 0.00 0.20 0.00 93 1001.3
20260904015540 53 346 0.0 0.0 0.00 0.20 0.00 94 1001.3
20260904014510 53 330 0.0 0.0 0.00 0.20 0.00 94 1001.3
20260904013440 53 11 0.0 0.0 0.00 0.20 0.00 94 1001.4
20260904012440 52 324 0.0 0.0 0.00 0.20 0.00 94 1001.5
20260904011440 52 345 0.0 0.0 0.00 0.20 0.00 94 1001.5
20260904010440 52 317 0.0 0.0 0.00 0.20 0.00 94 1001.6
20260904005410 52 315 0.0 0.0 0.00 0.20 0.00 93 1001.5
20260904004410 52 313 0.0 0.0 0.00 0.20 0.00 93 1001.6
20260904003340 52 311 0.0 0.0 0.00 0.20 0.00 93 1001.6
20260904002310 52 311 0.0 0.0 0.00 0.20 0.00 93 1001.6
20260904001240 52 311 0.0 0.0 0.00 0.20 0.00 93 1001.7
20260904000241 52 309 0.0 0.0 0.00 0.20 0.00 93 1001.8
20260903235240 52 308 0.0 0.0 0.00 0.20 0.00 94 1001.8
20260903234239 52 307 0.0 0.0 0.00 0.20 0.00 94 1001.8
20260903233239 52 307 0.0 0.0 0.00 0.20 0.00 93 1001.6
20260903232239 52 307 0.0 0.0 0.00 0.20 0.00 94 1001.7
20260903231209 52 307 0.0 0.0 0.00 0.20 0.00 94 1001.8
20260903230209 52 307 0.0 0.0 0.00 0.20 0.00 94 1001.8
20260903225139 52 307 0.0 0.0 0.00 0.20 0.00 94 1001.9
20260903224109 52 307 0.0 0.0 0.00 0.20 0.00 94 1001.8
20260903223039 52 307 0.0 0.0 0.00 0.20 0.00 93 1001.9
20260903222009 52 306 0.0 0.0 0.00 0.20 0.00 93 1001.9
20260903221009 52 306 0.0 0.0 0.00 0.21 0.00 93 1001.9
20260903215939 52 306 0.0 0.0 0.00 0.21 0.21 93 1002.0
20260903214939 53 306 0.0 0.0 0.00 0.21 0.21 93 1001.9
20260903213939 53 306 0.0 0.0 0.00 0.21 0.21 93 1002.0
20260903212939 53 306 0.0 0.0 0.00 0.21 0.21 93 1001.9
20260903211909 53 306 0.0 0.0 0.00 0.21 0.21 94 1001.8
20260903210909 53 306 0.0 0.0 0.00 0.21 0.21 93 1001.9
20260903205909 54 306 0.0 0.0 0.00 0.22 0.21 93 1001.8
20260903204839 54 306 0.0 0.0 0.00 0.22 0.21 93 1001.8
20260903203839 54 306 0.0 0.0 0.00 0.23 0.21 93 1001.9
20260903202839 54 306 0.0 0.0 0.00 0.23 0.21 93 1001.9
20260903201809 55 306 0.0 0.0 0.00 0.24 0.21 93 1001.9
20260903200809 55 306 0.0 0.0 0.00 0.24 0.21 93 1002.0
20260903195809 55 306 0.0 0.0 0.00 0.24 0.21 93 1002.0
20260903194739 55 306 0.0 0.0 0.00 0.24 0.21 93 1002.1
20260903193739 55 306 0.0 0.0 0.00 0.24 0.21 93 1002.1
20260903192739 55 306 0.0 0.0 0.00 0.24 0.21 93 1002.1
20260903191739 55 306 0.0 0.0 0.01 0.24 0.21 93 1002.0
20260903190739 55 306 0.0 0.0 0.01 0.24 0.21 92 1001.9
20260903185709 56 306 0.0 0.0 0.01 0.24 0.21 92 1001.9
20260903184709 56 306 0.0 0.0 0.01 0.24 0.21 92 1001.8
20260903183639 56 306 0.0 0.0 0.01 0.24 0.21 92 1001.9
20260903182639 56 306 0.0 0.0 0.01 0.24 0.21 92 1001.8
20260903181609 56 306 0.0 0.0 0.01 0.24 0.20 91 1001.9
20260903180609 57 306 0.0 0.0 0.02 0.24 0.20 91 1001.8
20260903175609 57 306 0.0 0.0 0.02 0.24 0.20 90 1001.8
20260903174539 58 306 0.0 0.0 0.02 0.24 0.20 90 1001.8
20260903173509 58 306 0.0 0.0 0.02 0.24 0.20 90 1001.7
20260903172509 58 172 0.0 0.0 0.02 0.24 0.20 90 1001.6
20260903171439 58 172 0.0 0.0 0.01 0.23 0.20 91 1001.6
20260903170439 58 172 0.0 0.0 0.00 0.22 0.19 90 1001.7
20260903165439 58 172 0.0 0.0 0.00 0.22 0.19 88 1001.7